TimeMDT,TemperatureF,Dew PointF,Humidity,Sea Level PressureIn,VisibilityMPH,Wind Direction,Wind SpeedMPH,Gust SpeedMPH,PrecipitationIn,Events,Conditions,WindDirDegrees,DateUTC
12:53 AM,39.0,14.0,36,30.07,10.0,Calm,Calm,-,N/A,,Clear,0,2013-10-20 06:53:00
1:53 AM,37.0,14.0,39,30.05,10.0,Calm,Calm,-,N/A,,Clear,0,2013-10-20 07:53:00
2:53 AM,32.0,14.0,48,30.06,10.0,NW,4.6,-,N/A,,Clear,320,2013-10-20 08:53:00
3:53 AM,32.0,16.0,52,30.04,10.0,Calm,Calm,-,N/A,,Clear,0,2013-10-20 09:53:00
4:53 AM,28.0,15.1,58,30.04,10.0,Calm,Calm,-,N/A,,Clear,0,2013-10-20 10:53:00
5:53 AM,30.9,15.1,52,30.02,10.0,South,3.5,-,N/A,,Clear,170,2013-10-20 11:53:00
6:53 AM,25.0,16.0,69,30.08,10.0,Calm,Calm,-,N/A,,Clear,0,2013-10-20 12:53:00
7:53 AM,26.1,14.0,60,30.09,10.0,West,3.5,-,N/A,,Clear,260,2013-10-20 13:53:00
8:53 AM,35.1,17.1,48,30.08,10.0,Calm,Calm,-,N/A,,Clear,0,2013-10-20 14:53:00
9:53 AM,44.1,19.0,37,30.06,10.0,Calm,Calm,-,N/A,,Clear,0,2013-10-20 15:53:00
10:53 AM,54.0,19.0,25,30.03,10.0,NNE,3.5,-,N/A,,Clear,30,2013-10-20 16:53:00
11:53 AM,59.0,18.0,20,30.01,10.0,East,3.5,-,N/A,,Clear,80,2013-10-20 17:53:00
12:53 PM,63.0,15.1,16,29.99,10.0,NNE,5.8,-,N/A,,Clear,30,2013-10-20 18:53:00
1:53 PM,64.9,12.9,13,29.97,10.0,North,4.6,-,N/A,,Clear,360,2013-10-20 19:53:00
2:53 PM,64.9,12.9,13,29.96,10.0,WNW,4.6,-,N/A,,Clear,290,2013-10-20 20:53:00
3:53 PM,68.0,10.9,11,29.94,10.0,North,3.5,-,N/A,,Clear,10,2013-10-20 21:53:00
4:53 PM,66.9,10.0,11,29.95,10.0,North,5.8,16.1,N/A,,Clear,10,2013-10-20 22:53:00
5:53 PM,64.9,12.0,13,29.95,10.0,NNE,11.5,-,N/A,,Clear,20,2013-10-20 23:53:00
6:53 PM,57.0,15.1,19,30.00,10.0,NNE,9.2,18.4,N/A,,Clear,30,2013-10-21 00:53:00
7:53 PM,54.0,15.1,22,30.02,10.0,NNE,11.5,-,N/A,,Clear,30,2013-10-21 01:53:00
8:53 PM,55.0,15.1,21,30.00,10.0,ENE,15.0,21.9,N/A,,Clear,60,2013-10-21 02:53:00
9:53 PM,44.1,18.0,35,30.03,10.0,North,8.1,-,N/A,,Clear,360,2013-10-21 03:53:00
10:53 PM,39.0,17.1,41,30.03,10.0,Calm,Calm,-,N/A,,Clear,0,2013-10-21 04:53:00
11:53 PM,37.9,17.1,43,30.04,10.0,SW,4.6,-,N/A,,Clear,220,2013-10-21 05:53:00